Change the Weather History Date:

Sunday, October 13, 2013

  Actual Average Record
Temperature  
Mean Temperature 46 °F -  
Max Temperature 48 °F 44 °F 53 °F (1993)
Min Temperature 44 °F 38 °F 33 °F (2012)
Degree Days  
Heating Degree Days 19    
Moisture  
Dew Point 43 °F    
Average Humidity 89    
Maximum Humidity 93    
Minimum Humidity 87    
Precipitation  
Precipitation 0.00 in - - ()
Sea Level Pressure  
Sea Level Pressure 29.41 in    
Wind  
Wind Speed 20 mph (West)    
Max Wind Speed 34 mph    
Max Gust Speed 40 mph    
Visibility 9 miles    
Events      
Averages and records for this station are not official NWS values.
T = Trace of Precipitation, MM = Missing Value Source: NWS Daily Summary

Daily Weather History Graph

Daily Weather History Graph

Search for Another Location

Airport or City:

Trip Planner

Search our weather history database for the weather conditions in past years. The results will help you decide how hot, cold, wet, or windy it might be!

Date:

Astronomy

Oct. 13, 2013 Rise Set
Actual Time 9:09 AM AKDT 7:46 PM AKDT
Civil Twilight 8:32 AM AKDT 8:22 PM AKDT
Nautical Twilight 7:50 AM AKDT 9:05 PM AKDT
Astronomical Twilight 7:07 AM AKDT 9:47 PM AKDT
Moon 5:30 PM AKDT (10/13) 2:39 AM AKDT (10/13)
Length of Visible Light 11h 50m
Length of Day
10h 37m
Waxing Gibbous, 71% of the Moon is Illuminated
Oct 13
Waxing Gibbous
Oct 18
Full
Oct 26
Last Quarter
Nov 3
New
Nov 9
First Quarter

Hourly Weather History & Observations

Time (AKDT) Temp. Windchill Dew Point Humidity Pressure Visibility Wind Dir Wind Speed Gust Speed Precip Events Conditions
12:16 AM 46.4 °F 37.4 °F 42.8 °F 87% 29.16 in 7.0 mi South 28.8 mph 35.7 mph N/A   Overcast
12:36 AM 46.4 °F 37.5 °F 42.8 °F 87% 29.17 in 10.0 mi South 27.6 mph 34.5 mph N/A   Overcast
12:56 AM 46.4 °F 37.2 °F 42.8 °F 87% 29.17 in 8.0 mi South 29.9 mph 36.8 mph N/A   Overcast
1:16 AM 46.4 °F 37.4 °F 42.8 °F 87% 29.17 in 10.0 mi South 28.8 mph 35.7 mph N/A   Overcast
1:36 AM 46.4 °F 37.4 °F 42.8 °F 87% 29.17 in 10.0 mi South 28.8 mph 34.5 mph N/A   Overcast
1:56 AM 46.4 °F 37.5 °F 42.8 °F 87% 29.16 in 10.0 mi South 27.6 mph 38.0 mph N/A   Overcast
2:16 AM 46.4 °F 36.5 °F 42.8 °F 87% 29.15 in 5.0 mi South 34.5 mph 40.3 mph N/A   Overcast
2:36 AM 44.6 °F 34.9 °F 42.8 °F 93% 29.15 in 3.0 mi South 28.8 mph 38.0 mph N/A   Overcast
2:56 AM 46.4 °F 37.4 °F 44.6 °F 93% 29.15 in 9.0 mi South 28.8 mph 35.7 mph N/A   Overcast
3:16 AM 46.4 °F 37.7 °F 44.6 °F 93% 29.15 in 6.0 mi South 26.5 mph 34.5 mph N/A   Overcast
3:36 AM 46.4 °F 38.1 °F 44.6 °F 93% 29.15 in 7.0 mi South 24.2 mph 32.2 mph N/A   Overcast
3:56 AM 46.4 °F 38.5 °F 44.6 °F 93% 29.14 in 6.0 mi South 21.9 mph 29.9 mph N/A   Overcast
4:16 AM 46.4 °F 39.0 °F 44.6 °F 93% 29.14 in 7.0 mi South 19.6 mph - N/A   Overcast
4:36 AM 46.4 °F 39.8 °F 42.8 °F 87% 29.14 in 10.0 mi SW 16.1 mph 25.3 mph N/A   Overcast
4:56 AM 46.4 °F 39.5 °F 42.8 °F 87% 29.14 in 10.0 mi SSW 17.3 mph 27.6 mph N/A   Overcast
5:16 AM 46.4 °F 40.4 °F 42.8 °F 87% 29.14 in 10.0 mi SSW 13.8 mph 23.0 mph N/A   Overcast
5:36 AM 46.4 °F 39.2 °F 42.8 °F 87% 29.15 in 10.0 mi WSW 18.4 mph 24.2 mph N/A   Overcast
5:56 AM 46.4 °F 40.7 °F 42.8 °F 87% 29.16 in 10.0 mi WSW 12.7 mph 23.0 mph N/A   Overcast
6:16 AM 46.4 °F 41.5 °F 42.8 °F 87% 29.17 in 10.0 mi WSW 10.4 mph - N/A   Overcast
6:36 AM 46.4 °F 41.1 °F 42.8 °F 87% 29.18 in 10.0 mi West 11.5 mph - N/A   Overcast
6:56 AM 44.6 °F 40.2 °F 42.8 °F 93% 29.19 in 10.0 mi West 8.1 mph - N/A   Overcast
7:16 AM 44.6 °F - 42.8 °F 93% 29.19 in 9.0 mi Calm Calm - N/A   Overcast
7:36 AM 46.4 °F 42.4 °F 44.6 °F 93% 29.20 in 9.0 mi West 8.1 mph - N/A   Overcast
7:56 AM 46.4 °F 40.7 °F 44.6 °F 93% 29.22 in 9.0 mi West 12.7 mph - N/A   Overcast
8:16 AM 46.4 °F 41.1 °F 44.6 °F 93% 29.23 in 9.0 mi West 11.5 mph - N/A   Overcast
8:36 AM 44.6 °F 38.4 °F 42.8 °F 93% 29.24 in 9.0 mi WSW 12.7 mph - N/A   Overcast
8:56 AM 46.4 °F 40.1 °F 42.8 °F 87% 29.25 in 9.0 mi WSW 15.0 mph - N/A   Overcast
9:16 AM 46.4 °F 40.4 °F 42.8 °F 87% 29.26 in 8.0 mi WSW 13.8 mph 18.4 mph N/A   Overcast
9:36 AM 44.6 °F 37.4 °F 42.8 °F 93% 29.26 in 8.0 mi WSW 16.1 mph 20.7 mph N/A   Mostly Cloudy
9:56 AM 44.6 °F 38.1 °F 42.8 °F 93% 29.27 in 8.0 mi WSW 13.8 mph - N/A   Overcast
10:16 AM 44.6 °F 39.7 °F 42.8 °F 93% 29.28 in 8.0 mi WSW 9.2 mph - N/A   Overcast
10:36 AM 46.4 °F 39.8 °F 42.8 °F 87% 29.29 in 8.0 mi WSW 16.1 mph 25.3 mph N/A   Overcast
10:56 AM 46.4 °F 40.7 °F 42.8 °F 87% 29.31 in 9.0 mi West 12.7 mph 21.9 mph N/A   Overcast
11:16 AM 46.4 °F 40.7 °F 42.8 °F 87% 29.32 in 8.0 mi WSW 12.7 mph 19.6 mph N/A   Overcast
11:36 AM 46.4 °F 38.7 °F 42.8 °F 87% 29.33 in 8.0 mi West 20.7 mph 27.6 mph N/A   Mostly Cloudy
11:56 AM 46.4 °F 39.0 °F 42.8 °F 87% 29.34 in 9.0 mi West 19.6 mph 31.1 mph N/A   Overcast
12:16 PM 46.4 °F 39.0 °F 42.8 °F 87% 29.35 in 9.0 mi West 19.6 mph 26.5 mph N/A   Overcast
12:36 PM 46.4 °F 38.7 °F 42.8 °F 87% 29.36 in 10.0 mi West 20.7 mph 31.1 mph N/A   Mostly Cloudy
12:56 PM 46.4 °F 38.5 °F 44.6 °F 93% 29.37 in 10.0 mi West 21.9 mph 31.1 mph N/A   Mostly Cloudy
1:16 PM 46.4 °F 38.7 °F 44.6 °F 93% 29.39 in 10.0 mi West 20.7 mph 31.1 mph N/A   Mostly Cloudy
1:36 PM 46.4 °F 40.1 °F 44.6 °F 93% 29.41 in 10.0 mi WNW 15.0 mph 23.0 mph N/A   Mostly Cloudy
1:56 PM 48.2 °F - 44.6 °F 87% 29.43 in 10.0 mi WNW 24.2 mph 32.2 mph N/A   Mostly Cloudy
2:16 PM 48.2 °F - 46.4 °F 93% 29.44 in 10.0 mi WNW 20.7 mph 31.1 mph N/A   Mostly Cloudy
2:36 PM 48.2 °F - 46.4 °F 93% 29.46 in 10.0 mi WNW 21.9 mph 31.1 mph N/A   Mostly Cloudy
2:56 PM 48.2 °F - 46.4 °F 93% 29.46 in 10.0 mi WNW 21.9 mph 31.1 mph N/A   Scattered Clouds
3:16 PM 48.2 °F - 46.4 °F 93% 29.48 in 10.0 mi WNW 27.6 mph 32.2 mph N/A   Scattered Clouds
3:36 PM 48.2 °F - 46.4 °F 93% 29.51 in 10.0 mi WNW 23.0 mph 29.9 mph N/A   Scattered Clouds
3:56 PM 48.2 °F - 46.4 °F 93% 29.52 in 10.0 mi WNW 18.4 mph 28.8 mph N/A   Mostly Cloudy
4:16 PM 48.2 °F - 46.4 °F 93% 29.54 in 10.0 mi WNW 18.4 mph 21.9 mph N/A   Mostly Cloudy
4:36 PM 48.2 °F - 44.6 °F 87% 29.55 in 10.0 mi WNW 18.4 mph 23.0 mph N/A   Mostly Cloudy
4:56 PM 48.2 °F - 44.6 °F 87% 29.57 in 10.0 mi WNW 19.6 mph 24.2 mph N/A   Mostly Cloudy
5:16 PM 48.2 °F - 44.6 °F 87% 29.58 in 10.0 mi West 19.6 mph 25.3 mph N/A   Mostly Cloudy
5:36 PM 48.2 °F - 44.6 °F 87% 29.61 in 10.0 mi WNW 18.4 mph 27.6 mph N/A   Mostly Cloudy
5:56 PM 46.4 °F 39.5 °F 42.8 °F 87% 29.63 in 10.0 mi WNW 17.3 mph 31.1 mph N/A   Mostly Cloudy
6:16 PM 46.4 °F 40.1 °F 42.8 °F 87% 29.65 in 10.0 mi West 15.0 mph 24.2 mph N/A   Mostly Cloudy
6:36 PM 46.4 °F 41.1 °F 42.8 °F 87% 29.67 in 10.0 mi WNW 11.5 mph 20.7 mph N/A   Mostly Cloudy
6:56 PM 46.4 °F 41.1 °F 42.8 °F 87% 29.69 in 10.0 mi WNW 11.5 mph - N/A   Overcast
7:16 PM 46.4 °F 39.8 °F 44.6 °F 93% 29.70 in 10.0 mi WNW 16.1 mph 21.9 mph N/A   Overcast
7:36 PM 46.4 °F 38.5 °F 42.8 °F 87% 29.71 in 10.0 mi WNW 21.9 mph 25.3 mph N/A   Overcast
7:56 PM 44.6 °F 35.5 °F 42.8 °F 93% 29.70 in 10.0 mi WNW 25.3 mph 32.2 mph N/A   Overcast
8:16 PM 46.4 °F 39.8 °F 42.8 °F 87% 29.74 in 10.0 mi WNW 16.1 mph 23.0 mph N/A   Clear
8:36 PM 46.4 °F 40.1 °F 42.8 °F 87% 29.75 in 10.0 mi WNW 15.0 mph 23.0 mph N/A   Clear
8:56 PM 44.6 °F 37.2 °F 41.0 °F 87% 29.78 in 10.0 mi WNW 17.3 mph 25.3 mph N/A   Clear
9:16 PM 44.6 °F 39.2 °F 42.8 °F 93% 29.78 in 10.0 mi WNW 10.4 mph - N/A   Clear
9:36 PM 44.6 °F 39.2 °F 41.0 °F 87% 29.81 in 10.0 mi WNW 10.4 mph 16.1 mph N/A   Clear
9:56 PM 44.6 °F 39.7 °F 41.0 °F 87% 29.81 in 10.0 mi West 9.2 mph - N/A   Mostly Cloudy
10:16 PM 44.6 °F 39.2 °F 42.8 °F 93% 29.82 in 10.0 mi West 10.4 mph - N/A   Partly Cloudy
10:36 PM 44.6 °F 40.2 °F 41.0 °F 87% 29.82 in 10.0 mi WNW 8.1 mph - N/A   Clear
10:56 PM 44.6 °F 39.2 °F 41.0 °F 87% 29.84 in 10.0 mi WSW 10.4 mph - N/A   Clear
11:16 PM 44.6 °F 43.1 °F 41.0 °F 87% 29.85 in 10.0 mi West 3.5 mph - N/A   Mostly Cloudy
11:36 PM 44.6 °F - 42.8 °F 93% 29.85 in 10.0 mi Calm Calm - N/A   Overcast
11:56 PM 44.6 °F 43.1 °F 41.0 °F 87% 29.87 in 10.0 mi West 3.5 mph - N/A   Mostly Cloudy